Location: Mesa
(33.4220°N, 111.8220°W)
Time: 06:23:42
(UTC-07:00)

N. Korean satellite - Pass Details

Date: 17 November 2019
Orbit: 456 x 506 km, 97.2° (Epoch: 07 December)

Event Time Altitude Azimuth Distance (km) Brightness Sun altitude
Rises 06:18:54 0° 9° (N) 2,607 10.2 -9.0°
Reaches altitude 10° 06:21:01 10° 8° (N) 1,714 9.3 -8.6°
Maximum altitude 06:24:42 78° 282° (WNW) 513 6.5 -7.8°
Drops below altitude 10° 06:28:19 10° 196° (SSW) 1,680 9.3 -7.1°
Sets 06:30:22 0° 195° (SSW) 2,549 10.3 -6.7°
